AFL1335 ULAA-UUEE

Flight info

Callsign AFL1335
Flight time 1h 26m
Altitude 34000
Route ABEL3K ABELU T825 UREPI P65 ROMTA ROMT3F
Aircraft B738/M-V/N

Departure

Time 2026-05-06 17:31
Airport Talagi Airport (ULAA)

Arrival

Time 2026-05-06 18:58
Airport Sheremetyevo International Airport (UUEE)
Time Latitude Longitude Altitude Speed Heading
2026-05-06 16:32 64.59663 40.71480 39 ft 0 kts 186°
2026-05-06 17:13 64.59668 40.71482 39 ft 3 kts 185°
2026-05-06 17:14 64.59688 40.71485 39 ft 3 kts 193°
2026-05-06 17:14 64.59703 40.71495 38 ft 3 kts 217°
2026-05-06 17:14 64.59713 40.71525 39 ft 3 kts 264°
2026-05-06 17:14 64.59713 40.71571 39 ft 3 kts 277°
2026-05-06 17:15 64.59711 40.71604 39 ft 0 kts 275°
2026-05-06 17:20 64.59711 40.71599 39 ft 1 kts 275°
2026-05-06 17:20 64.59713 40.71547 39 ft 4 kts 276°
2026-05-06 17:20 64.59717 40.71468 39 ft 6 kts 276°
2026-05-06 17:20 64.59723 40.71355 39 ft 8 kts 277°
2026-05-06 17:21 64.59729 40.71215 39 ft 9 kts 276°
2026-05-06 17:21 64.59736 40.71070 39 ft 6 kts 276°
2026-05-06 17:21 64.59765 40.71012 39 ft 7 kts 353°
2026-05-06 17:21 64.59816 40.71021 39 ft 8 kts
2026-05-06 17:22 64.59845 40.70983 37 ft 8 kts 298°
2026-05-06 17:22 64.59856 40.70851 39 ft 9 kts 277°
2026-05-06 17:22 64.59864 40.70690 39 ft 11 kts 276°
2026-05-06 17:22 64.59873 40.70505 38 ft 12 kts 276°
2026-05-06 17:23 64.59883 40.70298 37 ft 14 kts 276°
2026-05-06 17:23 64.59894 40.70070 39 ft 15 kts 276°
2026-05-06 17:23 64.59906 40.69822 39 ft 16 kts 276°
2026-05-06 17:23 64.59919 40.69558 39 ft 17 kts 276°
2026-05-06 17:24 64.59931 40.69295 39 ft 16 kts 276°
2026-05-06 17:24 64.59940 40.69104 39 ft 5 kts 276°
2026-05-06 17:24 64.59964 40.69040 39 ft 6 kts 342°
2026-05-06 17:24 64.60014 40.69042 37 ft 8 kts
2026-05-06 17:25 64.60077 40.69057 36 ft 10 kts
2026-05-06 17:25 64.60147 40.69145 34 ft 14 kts 72°
2026-05-06 17:25 64.60140 40.69373 35 ft 15 kts 96°
2026-05-06 17:25 64.60128 40.69631 35 ft 17 kts 96°
2026-05-06 17:26 64.60115 40.69905 35 ft 18 kts 96°
2026-05-06 17:26 64.60099 40.70216 35 ft 19 kts 96°
2026-05-06 17:26 64.60084 40.70535 33 ft 20 kts 96°
2026-05-06 17:26 64.60068 40.70860 37 ft 20 kts 96°
2026-05-06 17:27 64.60052 40.71185 38 ft 20 kts 96°
2026-05-06 17:27 64.60036 40.71513 37 ft 21 kts 96°
2026-05-06 17:27 64.60018 40.71879 34 ft 24 kts 96°
2026-05-06 17:27 64.60000 40.72255 33 ft 24 kts 96°
2026-05-06 17:28 64.59982 40.72624 37 ft 23 kts 97°
2026-05-06 17:28 64.59964 40.72982 39 ft 22 kts 96°
2026-05-06 17:28 64.59946 40.73347 36 ft 24 kts 96°
2026-05-06 17:28 64.59926 40.73748 34 ft 26 kts 96°
2026-05-06 17:29 64.59913 40.74056 34 ft 11 kts 91°
2026-05-06 17:29 64.59918 40.74203 35 ft 4 kts 91°
2026-05-06 17:29 64.59911 40.74221 36 ft 1 kts 167°
2026-05-06 17:29 64.59908 40.74210 36 ft 1 kts 234°
2026-05-06 17:30 64.59906 40.74167 35 ft 5 kts 270°
2026-05-06 17:30 64.59908 40.74115 34 ft 0 kts 276°
2026-05-06 17:30 64.59910 40.74078 34 ft 10 kts 277°
2026-05-06 17:30 64.59946 40.73368 36 ft 79 kts 276°
2026-05-06 17:31 64.60031 40.71621 35 ft 139 kts 276°
2026-05-06 17:31 64.60139 40.69101 349 ft 162 kts 277°
2026-05-06 17:31 64.60272 40.66457 1054 ft 167 kts 278°
2026-05-06 17:31 64.60408 40.63756 1839 ft 170 kts 277°
2026-05-06 17:32 64.60542 40.60980 2617 ft 172 kts 277°
2026-05-06 17:32 64.60666 40.58217 3515 ft 169 kts 277°
2026-05-06 17:32 64.60804 40.55316 3974 ft 194 kts 278°
2026-05-06 17:32 64.60963 40.51999 4180 ft 217 kts 277°
2026-05-06 17:33 64.61138 40.48352 4408 ft 237 kts 276°
2026-05-06 17:33 64.60937 40.44425 4868 ft 255 kts 246°
2026-05-06 17:33 64.59808 40.41249 5772 ft 260 kts 217°
2026-05-06 17:33 64.58119 40.39631 6585 ft 269 kts 195°
2026-05-06 17:34 64.56256 40.38942 7411 ft 273 kts 190°
2026-05-06 17:34 64.54349 40.38493 8135 ft 278 kts 189°
2026-05-06 17:34 64.52409 40.38067 8896 ft 281 kts 189°
2026-05-06 17:34 64.50450 40.37628 9676 ft 284 kts 189°
2026-05-06 17:35 64.48459 40.37166 10298 ft 295 kts 189°
2026-05-06 17:35 64.46336 40.36649 10491 ft 319 kts 189°
2026-05-06 17:35 64.44045 40.36078 10689 ft 343 kts 189°
2026-05-06 17:36 64.39134 40.34843 11770 ft 361 kts 188°
2026-05-06 17:36 64.36629 40.34212 12513 ft 363 kts 188°
2026-05-06 17:36 64.34107 40.33570 13238 ft 366 kts 188°
2026-05-06 17:36 64.31560 40.32922 13906 ft 370 kts 188°
2026-05-06 17:37 64.28988 40.32272 14574 ft 374 kts 188°
2026-05-06 17:37 64.26391 40.31611 15222 ft 377 kts 188°
2026-05-06 17:37 64.23771 40.30943 15854 ft 380 kts 188°
2026-05-06 17:37 64.21127 40.30268 16467 ft 384 kts 188°
2026-05-06 17:38 64.18457 40.29589 17074 ft 387 kts 188°
2026-05-06 17:38 64.15768 40.28906 17674 ft 391 kts 187°
2026-05-06 17:38 64.13056 40.28220 18249 ft 394 kts 187°
2026-05-06 17:38 64.10324 40.27531 18807 ft 396 kts 187°
2026-05-06 17:39 64.07567 40.26836 19352 ft 400 kts 188°
2026-05-06 17:39 64.04797 40.26138 19903 ft 402 kts 188°
2026-05-06 17:39 64.02005 40.25435 20429 ft 405 kts 188°
2026-05-06 17:39 63.99198 40.24731 20949 ft 408 kts 188°
2026-05-06 17:40 63.96366 40.24022 21440 ft 410 kts 188°
2026-05-06 17:40 63.93520 40.23311 21925 ft 413 kts 188°
2026-05-06 17:40 63.90657 40.22597 22377 ft 415 kts 188°
2026-05-06 17:40 63.87771 40.21879 22825 ft 418 kts 189°
2026-05-06 17:41 63.84873 40.21159 23246 ft 421 kts 189°
2026-05-06 17:41 63.81954 40.20435 23689 ft 423 kts 189°
2026-05-06 17:41 63.79022 40.19710 24104 ft 425 kts 189°
2026-05-06 17:41 63.76100 40.18989 24494 ft 428 kts 189°
2026-05-06 17:42 63.73139 40.18199 24842 ft 429 kts 193°
2026-05-06 17:42 63.70260 40.16458 25181 ft 429 kts 202°
2026-05-06 17:42 63.67445 40.14180 25548 ft 431 kts 203°
2026-05-06 17:42 63.64628 40.11841 25899 ft 433 kts 203°
2026-05-06 17:43 63.61792 40.09531 26228 ft 435 kts 202°
2026-05-06 17:43 63.58925 40.07263 26543 ft 438 kts 202°
2026-05-06 17:43 63.56034 40.05029 26853 ft 441 kts 202°
2026-05-06 17:43 63.53124 40.02810 27154 ft 443 kts 202°
2026-05-06 17:44 63.50199 40.00591 27444 ft 445 kts 202°
2026-05-06 17:44 63.47260 39.98364 27721 ft 447 kts 202°
2026-05-06 17:44 63.44300 39.96121 27991 ft 449 kts 202°
2026-05-06 17:44 63.41366 39.93736 28345 ft 448 kts 204°
2026-05-06 17:45 63.38470 39.91224 28780 ft 445 kts 205°
2026-05-06 17:45 63.35599 39.88677 29227 ft 443 kts 205°
2026-05-06 17:45 63.32731 39.86127 29583 ft 443 kts 205°
2026-05-06 17:45 63.29865 39.83595 29922 ft 443 kts 205°
2026-05-06 17:46 63.26997 39.81089 30275 ft 442 kts 205°
2026-05-06 17:46 63.24133 39.78606 30631 ft 442 kts 205°
2026-05-06 17:46 63.21267 39.76137 30956 ft 442 kts 205°
2026-05-06 17:46 63.18403 39.73680 31261 ft 442 kts 205°
2026-05-06 17:47 63.15539 39.71232 31589 ft 441 kts 205°
2026-05-06 17:47 63.12681 39.68793 31954 ft 440 kts 205°
2026-05-06 17:47 63.09831 39.66367 32285 ft 439 kts 205°
2026-05-06 17:47 63.06979 39.63943 32570 ft 439 kts 205°
2026-05-06 17:48 63.04130 39.61527 32823 ft 439 kts 205°
2026-05-06 17:48 63.01274 39.59109 33028 ft 440 kts 205°
2026-05-06 17:48 62.98411 39.56690 33232 ft 440 kts 205°
2026-05-06 17:48 62.95556 39.54285 33410 ft 439 kts 205°
2026-05-06 17:49 62.92702 39.51884 33546 ft 440 kts 205°
2026-05-06 17:49 62.89838 39.49480 33668 ft 441 kts 205°
2026-05-06 17:49 62.86979 39.47085 33788 ft 439 kts 205°
2026-05-06 17:49 62.84145 39.44718 33842 ft 433 kts 205°
2026-05-06 17:50 62.78526 39.40038 33865 ft 432 kts 205°
2026-05-06 17:50 62.72889 39.35362 33869 ft 434 kts 205°
2026-05-06 17:51 62.67272 39.30721 33868 ft 436 kts 205°
2026-05-06 17:51 62.61598 39.26052 33874 ft 436 kts 205°
2026-05-06 17:52 62.55911 39.21390 33870 ft 437 kts 205°
2026-05-06 17:52 62.50230 39.16751 33872 ft 436 kts 205°
2026-05-06 17:53 62.44557 39.12136 33879 ft 435 kts 205°
2026-05-06 17:53 62.38892 39.07546 33881 ft 434 kts 205°
2026-05-06 17:54 62.33245 39.02993 33881 ft 433 kts 205°
2026-05-06 17:54 62.27607 38.98462 33883 ft 432 kts 205°
2026-05-06 17:55 62.21980 38.93961 33881 ft 431 kts 205°
2026-05-06 17:55 62.16361 38.89482 33893 ft 430 kts 205°
2026-05-06 17:56 62.10753 38.85027 33889 ft 430 kts 205°
2026-05-06 17:56 62.05146 38.80589 33898 ft 429 kts 205°
2026-05-06 17:57 61.99547 38.76177 33895 ft 429 kts 205°
2026-05-06 17:57 61.93946 38.71781 33901 ft 429 kts 205°
2026-05-06 17:58 61.88179 38.68343 33926 ft 434 kts 196°
2026-05-06 17:58 61.82231 38.65989 33916 ft 435 kts 196°
2026-05-06 17:59 61.76298 38.63487 33918 ft 435 kts 197°
2026-05-06 17:59 61.70367 38.60974 33925 ft 435 kts 196°
2026-05-06 18:00 61.64431 38.58482 33928 ft 435 kts 196°
2026-05-06 18:00 61.58492 38.55998 33925 ft 435 kts 196°
2026-05-06 18:01 61.52546 38.53518 33929 ft 435 kts 196°
2026-05-06 18:01 61.46602 38.51047 33924 ft 436 kts 196°
2026-05-06 18:02 61.40655 38.48586 33927 ft 436 kts 196°
2026-05-06 18:02 61.34703 38.46133 33925 ft 435 kts 196°
2026-05-06 18:03 61.29763 38.44101 33936 ft 436 kts 196°
2026-05-06 18:03 61.23814 38.41684 33933 ft 437 kts 194°
2026-05-06 18:04 61.17748 38.40198 33930 ft 439 kts 191°
2026-05-06 18:04 61.11655 38.38997 33934 ft 440 kts 191°
2026-05-06 18:05 61.05561 38.37767 33935 ft 440 kts 191°
2026-05-06 18:05 60.99472 38.36490 33935 ft 440 kts 191°
2026-05-06 18:06 60.93377 38.35201 33937 ft 440 kts 191°
2026-05-06 18:06 60.87287 38.33917 33947 ft 440 kts 191°
2026-05-06 18:07 60.81222 38.32647 33943 ft 440 kts 191°
2026-05-06 18:07 60.75129 38.31375 33938 ft 440 kts 191°
2026-05-06 18:08 60.69036 38.30107 33945 ft 440 kts 191°
2026-05-06 18:08 60.62942 38.28842 33945 ft 439 kts 191°
2026-05-06 18:09 60.56862 38.27586 33944 ft 439 kts 191°
2026-05-06 18:09 60.50794 38.26337 33945 ft 438 kts 191°
2026-05-06 18:10 60.44733 38.25095 33949 ft 437 kts 191°
2026-05-06 18:10 60.38680 38.23859 33960 ft 437 kts 191°
2026-05-06 18:11 60.32643 38.22630 33957 ft 436 kts 191°
2026-05-06 18:11 60.26611 38.21405 33958 ft 436 kts 191°
2026-05-06 18:12 60.20619 38.20199 33956 ft 436 kts 191°
2026-05-06 18:12 60.14588 38.18989 33952 ft 435 kts 191°
2026-05-06 18:13 60.08522 38.17778 33959 ft 435 kts 191°
2026-05-06 18:13 60.02495 38.16580 33958 ft 435 kts 191°
2026-05-06 18:14 59.96471 38.15385 33962 ft 435 kts 191°
2026-05-06 18:14 59.90474 38.14200 33966 ft 436 kts 191°
2026-05-06 18:15 59.84438 38.13010 33967 ft 436 kts 190°
2026-05-06 18:15 59.78399 38.11825 33962 ft 436 kts 190°
2026-05-06 18:16 59.72354 38.10624 33967 ft 437 kts 190°
2026-05-06 18:16 59.66305 38.09427 33964 ft 437 kts 190°
2026-05-06 18:17 59.60249 38.08236 33958 ft 437 kts 190°
2026-05-06 18:17 59.54194 38.07049 33967 ft 437 kts 190°
2026-05-06 18:18 59.48131 38.05863 33964 ft 437 kts 190°
2026-05-06 18:18 59.42076 38.04684 33959 ft 437 kts 190°
2026-05-06 18:19 59.36014 38.03508 33965 ft 438 kts 190°
2026-05-06 18:19 59.29955 38.02335 33965 ft 438 kts 190°
2026-05-06 18:20 59.23884 38.01230 33964 ft 438 kts 189°
2026-05-06 18:20 59.17799 38.00272 33961 ft 439 kts 189°
2026-05-06 18:21 59.11714 37.99319 33969 ft 439 kts 189°
2026-05-06 18:21 59.05629 37.98351 33964 ft 439 kts 189°
2026-05-06 18:22 58.99548 37.97379 33969 ft 439 kts 189°
2026-05-06 18:22 58.93458 37.96409 33960 ft 439 kts 189°
2026-05-06 18:23 58.87371 37.95443 33963 ft 439 kts 189°
2026-05-06 18:23 58.81285 37.94469 33965 ft 439 kts 189°
2026-05-06 18:24 58.75194 37.93470 33966 ft 439 kts 189°
2026-05-06 18:24 58.69100 37.92478 33961 ft 440 kts 189°
2026-05-06 18:25 58.62990 37.91571 33963 ft 441 kts 188°
2026-05-06 18:25 58.56863 37.90761 33960 ft 441 kts 188°
2026-05-06 18:26 58.50740 37.89954 33963 ft 441 kts 188°
2026-05-06 18:26 58.44616 37.89131 33961 ft 441 kts 188°
2026-05-06 18:27 58.38486 37.88303 33956 ft 442 kts 188°
2026-05-06 18:27 58.32355 37.87481 33954 ft 442 kts 187°
2026-05-06 18:28 58.26222 37.86662 33953 ft 442 kts 187°
2026-05-06 18:28 58.20089 37.85847 33957 ft 442 kts 187°
2026-05-06 18:29 58.13953 37.85032 33959 ft 442 kts 187°
2026-05-06 18:29 58.10880 37.84625 33849 ft 444 kts 187°
2026-05-06 18:29 58.07790 37.84215 33572 ft 444 kts 187°
2026-05-06 18:30 58.04714 37.83811 33141 ft 443 kts 187°
2026-05-06 18:30 58.01647 37.83408 32654 ft 439 kts 187°
2026-05-06 18:30 57.98655 37.83016 32187 ft 435 kts 187°
2026-05-06 18:30 57.95650 37.82623 31727 ft 431 kts 187°
2026-05-06 18:31 57.92676 37.82234 31262 ft 427 kts 188°
2026-05-06 18:31 57.89721 37.81845 30810 ft 423 kts 188°
2026-05-06 18:31 57.86797 37.81462 30343 ft 420 kts 188°
2026-05-06 18:31 57.83890 37.81083 29884 ft 417 kts 188°
2026-05-06 18:32 57.81011 37.80701 29394 ft 414 kts 188°
2026-05-06 18:32 57.78138 37.80296 28881 ft 412 kts 188°
2026-05-06 18:32 57.75294 37.79885 28410 ft 408 kts 188°
2026-05-06 18:32 57.72472 37.79475 27946 ft 405 kts 188°
2026-05-06 18:33 57.69671 37.79070 27490 ft 402 kts 188°
2026-05-06 18:33 57.66896 37.78671 27035 ft 399 kts 188°
2026-05-06 18:33 57.64131 37.78276 26581 ft 396 kts 188°
2026-05-06 18:33 57.61395 37.77886 26134 ft 394 kts 188°
2026-05-06 18:34 57.58670 37.77498 25685 ft 391 kts 188°
2026-05-06 18:34 57.55974 37.77115 25243 ft 388 kts 188°
2026-05-06 18:34 57.53288 37.76733 24799 ft 385 kts 187°
2026-05-06 18:34 57.50623 37.76355 24360 ft 383 kts 187°
2026-05-06 18:35 57.47975 37.75982 23918 ft 381 kts 187°
2026-05-06 18:35 57.45341 37.75616 23480 ft 378 kts 187°
2026-05-06 18:35 57.42720 37.75274 23040 ft 376 kts 187°
2026-05-06 18:35 57.40119 37.74942 22604 ft 374 kts 187°
2026-05-06 18:36 57.37536 37.74613 22170 ft 371 kts 187°
2026-05-06 18:36 57.34962 37.74286 21740 ft 369 kts 187°
2026-05-06 18:36 57.32411 37.73959 21313 ft 367 kts 187°
2026-05-06 18:36 57.29869 37.73634 20886 ft 365 kts 187°
2026-05-06 18:37 57.27343 37.73311 20461 ft 363 kts 187°
2026-05-06 18:37 57.25680 37.73099 20182 ft 361 kts 187°
2026-05-06 18:37 57.22338 37.72672 19621 ft 359 kts 187°
2026-05-06 18:37 57.19851 37.72353 19200 ft 357 kts 187°
2026-05-06 18:38 57.17382 37.72038 18783 ft 355 kts 187°
2026-05-06 18:38 57.14929 37.71726 18372 ft 352 kts 187°
2026-05-06 18:38 57.12493 37.71417 18002 ft 349 kts 187°
2026-05-06 18:38 57.10113 37.71085 17801 ft 340 kts 189°
2026-05-06 18:39 57.07776 37.70413 17439 ft 339 kts 193°
2026-05-06 18:39 57.05461 37.69571 17085 ft 339 kts 194°
2026-05-06 18:39 57.03145 37.68699 16737 ft 339 kts 194°
2026-05-06 18:40 56.98519 37.67009 16022 ft 338 kts 194°
2026-05-06 18:40 56.96215 37.66196 15667 ft 337 kts 194°
2026-05-06 18:40 56.93916 37.65396 15323 ft 335 kts 193°
2026-05-06 18:40 56.91630 37.64607 14960 ft 333 kts 193°
2026-05-06 18:41 56.89358 37.63827 14610 ft 332 kts 193°
2026-05-06 18:41 56.87091 37.63050 14282 ft 330 kts 193°
2026-05-06 18:41 56.84841 37.62281 13926 ft 328 kts 193°
2026-05-06 18:41 56.82602 37.61517 13581 ft 327 kts 193°
2026-05-06 18:42 56.80371 37.60758 13241 ft 325 kts 193°
2026-05-06 18:42 56.78152 37.60001 12898 ft 324 kts 193°
2026-05-06 18:42 56.75942 37.59251 12560 ft 322 kts 193°
2026-05-06 18:42 56.73749 37.58507 12225 ft 319 kts 193°
2026-05-06 18:43 56.71587 37.57729 11896 ft 315 kts 199°
2026-05-06 18:43 56.69610 37.56251 11750 ft 302 kts 209°
2026-05-06 18:43 56.67751 37.54552 11524 ft 296 kts 210°
2026-05-06 18:43 56.65960 37.52889 11319 ft 291 kts 210°
2026-05-06 18:44 56.64143 37.51205 11123 ft 288 kts 210°
2026-05-06 18:44 56.62356 37.49563 10907 ft 288 kts 210°
2026-05-06 18:44 56.60571 37.47934 10700 ft 287 kts 209°
2026-05-06 18:44 56.58804 37.46333 10503 ft 287 kts 209°
2026-05-06 18:45 56.56992 37.44700 10280 ft 287 kts 209°
2026-05-06 18:45 56.55220 37.43104 10066 ft 283 kts 209°
2026-05-06 18:45 56.53497 37.41558 9861 ft 277 kts 209°
2026-05-06 18:45 56.52338 37.40521 9731 ft 274 kts 209°
2026-05-06 18:46 56.50085 37.38512 9460 ft 271 kts 208°
2026-05-06 18:46 56.48392 37.37003 9271 ft 272 kts 208°
2026-05-06 18:46 56.46691 37.35488 9075 ft 273 kts 208°
2026-05-06 18:46 56.45535 37.34461 8940 ft 274 kts 208°
2026-05-06 18:47 56.43826 37.32944 8736 ft 274 kts 208°
2026-05-06 18:47 56.42113 37.31423 8535 ft 275 kts 208°
2026-05-06 18:47 56.40396 37.29899 8341 ft 275 kts 208°
2026-05-06 18:47 56.38677 37.28376 8135 ft 275 kts 208°
2026-05-06 18:48 56.36964 37.26860 7929 ft 274 kts 208°
2026-05-06 18:48 56.35270 37.25359 7719 ft 269 kts 208°
2026-05-06 18:48 56.33599 37.23885 7523 ft 266 kts 208°
2026-05-06 18:48 56.31941 37.22422 7342 ft 265 kts 208°
2026-05-06 18:49 56.30289 37.20967 7137 ft 264 kts 208°
2026-05-06 18:49 56.28639 37.19515 6958 ft 264 kts 208°
2026-05-06 18:49 56.26993 37.18064 6758 ft 263 kts 208°
2026-05-06 18:49 56.25346 37.16620 6570 ft 263 kts 208°
2026-05-06 18:50 56.23705 37.15181 6375 ft 262 kts 208°
2026-05-06 18:50 56.22062 37.13737 6184 ft 263 kts 208°
2026-05-06 18:50 56.20430 37.12306 6006 ft 260 kts 208°
2026-05-06 18:50 56.18803 37.10880 5806 ft 261 kts 207°
2026-05-06 18:51 56.17177 37.09458 5601 ft 258 kts 207°
2026-05-06 18:51 56.15579 37.08064 5399 ft 254 kts 207°
2026-05-06 18:51 56.14007 37.06689 5219 ft 249 kts 207°
2026-05-06 18:51 56.12422 37.05479 5026 ft 247 kts 193°
2026-05-06 18:52 56.10735 37.05698 4817 ft 245 kts 161°
2026-05-06 18:52 56.09166 37.06849 4628 ft 243 kts 157°
2026-05-06 18:52 56.07621 37.08067 4417 ft 241 kts 156°
2026-05-06 18:52 56.06092 37.09276 4193 ft 240 kts 156°
2026-05-06 18:53 56.04566 37.10476 3987 ft 240 kts 156°
2026-05-06 18:53 56.03034 37.11667 3768 ft 239 kts 156°
2026-05-06 18:53 56.01515 37.12846 3584 ft 237 kts 157°
2026-05-06 18:53 56.00015 37.13999 3399 ft 232 kts 156°
2026-05-06 18:54 55.98559 37.15121 3182 ft 223 kts 156°
2026-05-06 18:54 55.97166 37.16200 2993 ft 215 kts 155°
2026-05-06 18:54 55.95816 37.17236 2780 ft 208 kts 155°
2026-05-06 18:54 55.94594 37.18465 2580 ft 197 kts 131°
2026-05-06 18:55 55.94129 37.20584 2507 ft 180 kts 83°
2026-05-06 18:55 55.94374 37.22699 2404 ft 171 kts 75°
2026-05-06 18:55 55.94649 37.24682 2247 ft 159 kts 73°
2026-05-06 18:55 55.94922 37.26548 2007 ft 152 kts 74°
2026-05-06 18:56 55.95192 37.28365 1813 ft 152 kts 74°
2026-05-06 18:56 55.95463 37.30210 1617 ft 155 kts 74°
2026-05-06 18:56 55.95738 37.32061 1420 ft 155 kts 74°
2026-05-06 18:56 55.96013 37.33923 1187 ft 155 kts 74°
2026-05-06 18:57 55.96288 37.35769 991 ft 153 kts 74°
2026-05-06 18:57 55.96554 37.37593 791 ft 150 kts 73°
2026-05-06 18:57 55.96827 37.39381 644 ft 147 kts 73°
2026-05-06 18:57 55.97056 37.40904 641 ft 98 kts 75°
2026-05-06 18:58 55.97177 37.41712 640 ft 42 kts 75°
2026-05-06 18:58 55.97249 37.42197 637 ft 38 kts 75°
2026-05-06 18:58 55.97313 37.42625 641 ft 29 kts 75°
2026-05-06 18:58 55.97350 37.42878 640 ft 10 kts 75°
2026-05-06 18:59 55.97392 37.42951 640 ft 9 kts
2026-05-06 18:59 55.97456 37.42927 639 ft 10 kts 345°
2026-05-06 18:59 55.97525 37.42894 639 ft 11 kts 345°
2026-05-06 18:59 55.97604 37.42857 639 ft 13 kts 345°
2026-05-06 19:00 55.97693 37.42814 644 ft 13 kts 345°
2026-05-06 19:00 55.97753 37.42776 641 ft 8 kts 322°
2026-05-06 19:00 55.97759 37.42679 638 ft 9 kts 255°
2026-05-06 19:00 55.97742 37.42569 639 ft 10 kts 255°
2026-05-06 19:01 55.97724 37.42448 638 ft 10 kts 255°
2026-05-06 19:01 55.97705 37.42317 642 ft 11 kts 256°
2026-05-06 19:01 55.97688 37.42190 640 ft 9 kts 269°
2026-05-06 19:01 55.97729 37.42121 639 ft 9 kts 342°
2026-05-06 19:02 55.97792 37.42090 638 ft 10 kts 345°
2026-05-06 19:02 55.97861 37.42057 638 ft 10 kts 345°
2026-05-06 19:02 55.97918 37.42030 638 ft 5 kts 343°
2026-05-06 19:02 55.97933 37.41986 642 ft 5 kts 269°
2026-05-06 19:03 55.97925 37.41921 639 ft 5 kts 255°
2026-05-06 19:03 55.97921 37.41894 638 ft 0 kts 255°